Weather History for LELO - February, 2014

Change the Weather History Date:

Friday, February 14, 2014

  Actual Average Record
Temperature  
Mean Temperature 56 °F -  
Max Temperature 73 °F - - ()
Min Temperature 40 °F - - ()
Degree Days  
Heating Degree Days 8    
Growing Degree Days 6 (Base 50)    
Moisture  
Dew Point 42 °F    
Average Humidity 66    
Maximum Humidity 100    
Minimum Humidity 22    
Precipitation  
Precipitation 0.00 in - - ()
Sea Level Pressure  
Sea Level Pressure 29.76 in    
Wind  
Wind Speed 5 mph ()    
Max Wind Speed 22 mph    
Max Gust Speed 36 mph    
Visibility 8.7 miles    
Events      
T = Trace of Precipitation, MM = Missing Value Source: Averaged Metar Reports

Daily Weather History Graph

Daily Weather History Graph

Search for Another Location

Airport or City:

Trip Planner

Search our weather history database for the weather conditions in past years. The results will help you decide how hot, cold, wet, or windy it might be!

Date:

Astronomy

Feb. 14, 2014 Rise Set
Actual Time 8:07 AM CET 6:39 PM CET
Civil Twilight 7:38 AM CET 7:08 PM CET
Nautical Twilight 7:05 AM CET 7:41 PM CET
Astronomical Twilight 6:33 AM CET 8:14 PM CET
Moon 6:31 PM CET (2/14) 7:26 AM CET (2/14)
Length of Visible Light 11h 30m
Length of Day
10h 32m
Full, 100% of the Moon is Illuminated
Feb 14
Full
Feb 15
Full
Feb 22
Last Quarter
Mar 1
New
Mar 8
First Quarter

Hourly Weather History & Observations

Time (CET) Temp. Windchill Dew Point Humidity Pressure Visibility Wind Dir Wind Speed Gust Speed Precip Events Conditions
12:00 AM 44 °F - 41 °F 87% 29.98 in - East 2.3 mph - -  
12:00 AM 44.6 °F 41.4 °F 41.0 °F 87% 29.95 in - NE 5.8 mph - N/A   Clear
1:00 AM 43 °F - 41 °F 92% 29.95 in 16 mi Calm Calm - -   Clear
1:00 AM 42.8 °F - 39.2 °F 87% 29.92 in - Variable 1.2 mph - N/A   Clear
2:00 AM 43 °F - 41 °F 89% 29.94 in - SE 2.3 mph - -  
2:00 AM 41.0 °F 39.0 °F 41.0 °F 100% 29.89 in 6.2 mi South 3.5 mph - N/A   Partly Cloudy
3:00 AM 42 °F - 38 °F 79% 29.92 in - NNE 2.3 mph - -  
3:00 AM 41.0 °F - 39.2 °F 93% 29.89 in 6.2 mi Variable 1.2 mph - N/A   Scattered Clouds
4:00 AM 44 °F - 42 °F 89% 29.90 in 12 mi SE 6.9 mph - -   Partly Cloudy
4:00 AM 42.8 °F 39.3 °F 41.0 °F 93% 29.86 in 6.2 mi South 5.8 mph - N/A   Scattered Clouds
5:00 AM 43 °F - 40 °F 86% 29.89 in - NE 2.3 mph - -  
5:00 AM 41.0 °F - 41.0 °F 100% 29.86 in 6.2 mi Variable 1.2 mph - N/A   Scattered Clouds
6:00 AM 42 °F - 40 °F 91% 29.89 in - SE 2.3 mph - -  
6:00 AM 41.0 °F - 39.2 °F 93% 29.83 in 6.2 mi Variable 1.2 mph - N/A   Scattered Clouds
7:00 AM 43 °F - 41 °F 92% 29.88 in 12 mi Calm Calm - -   Partly Cloudy
7:00 AM 42.8 °F 41.1 °F 41.0 °F 93% 29.86 in 6.2 mi South 3.5 mph - N/A   Mostly Cloudy
8:00 AM 44 °F - 42 °F 89% 29.87 in - SSW 1.2 mph - -  
8:00 AM 42.8 °F - 41.0 °F 93% 29.83 in 6.2 mi Variable 1.2 mph - N/A   Mostly Cloudy
9:00 AM 44 °F - 42 °F 90% 29.86 in - Calm Calm - -  
9:00 AM 44.6 °F - 42.8 °F 93% 29.83 in 6.2 mi Calm Calm - N/A   Mostly Cloudy
10:00 AM 46 °F - 43 °F 87% 29.85 in 12 mi ENE 2.3 mph - -   Mostly Cloudy
10:00 AM 46.4 °F - 42.8 °F 87% 29.83 in 6.2 mi Variable 1.2 mph - N/A   Mostly Cloudy
11:00 AM 51 °F - 45 °F 74% 29.81 in - East 4.6 mph - -  
11:00 AM 48.2 °F - 44.6 °F 87% 29.80 in 6.2 mi Variable 2.3 mph - N/A   Mostly Cloudy
12:00 PM 52 °F - 45 °F 70% 29.78 in - ENE 3.5 mph - -  
12:00 PM 51.8 °F - 46.4 °F 82% 29.77 in 6.2 mi Variable 2.3 mph - N/A   Scattered Clouds
1:00 PM 58 °F - 49 °F 62% 29.71 in 19 mi ENE 1.2 mph - -   Scattered Clouds
1:00 PM 57.2 °F - 48.2 °F 72% 29.71 in 6.2 mi Variable 2.3 mph - N/A   Partly Cloudy
2:00 PM 71 °F - 43 °F 25% 29.62 in - SSW 6.9 mph - -  
2:00 PM 69.8 °F - 46.4 °F 43% 29.65 in 6.2 mi Variable 5.8 mph - N/A   Partly Cloudy
3:00 PM 73 °F - 42 °F 22% 29.58 in - SW 13.8 mph - -  
3:00 PM 73.4 °F - 42.8 °F 33% 29.62 in 6.2 mi SW 21.9 mph 35.7 mph N/A   Partly Cloudy
4:00 PM 71 °F - 40 °F 22% 29.59 in 19 mi SSW 11.5 mph - -   Scattered Clouds
4:00 PM 71.6 °F - 42.8 °F 35% 29.62 in 6.2 mi SSW 21.9 mph 33.4 mph N/A   Scattered Clouds
5:00 PM 69 °F - 40 °F 24% 29.59 in - South 16.1 mph - -  
5:00 PM 69.8 °F - 42.8 °F 38% 29.62 in 6.2 mi SSW 16.1 mph 32.2 mph N/A   Scattered Clouds
6:00 PM 67 °F - 39 °F 24% 29.60 in - South 16.1 mph - -  
6:00 PM 68.0 °F - 41.0 °F 37% 29.62 in 6.2 mi SSW 20.7 mph 32.2 mph N/A   Scattered Clouds
7:00 PM 65 °F - 39 °F 26% 29.62 in 19 mi SSW 10.4 mph - -   Partly Cloudy
7:00 PM 66.2 °F - 41.0 °F 40% 29.62 in 6.2 mi SW 16.1 mph - N/A   Scattered Clouds
8:00 PM 64 °F - 38 °F 27% 29.62 in - South 13.8 mph - -  
8:00 PM 59.0 °F - 42.8 °F 55% 29.62 in 6.2 mi SSE 3.5 mph - N/A   Partly Cloudy
9:00 PM 63 °F - 40 °F 32% 29.62 in - South 10.4 mph - -  
9:00 PM 60.8 °F - 41.0 °F 48% 29.62 in 6.2 mi South 6.9 mph - N/A   Partly Cloudy
10:00 PM 63 °F - 40 °F 32% 29.63 in 16 mi SSW 9.2 mph - -   Scattered Clouds
10:00 PM 62.6 °F - 41.0 °F 45% 29.62 in 6.2 mi SSW 13.8 mph - N/A   Partly Cloudy
11:00 PM 59 °F - 44 °F 47% 29.65 in - WSW 8.1 mph - -  
11:00 PM 57.2 °F - 44.6 °F 63% 29.65 in 6.2 mi West 12.7 mph - N/A   Mostly Cloudy